Regional Weather Roundup
Issued by NWS

Home | Current Version | Previous Version | Text Only | Print | Product List | Glossary Off
Versions: 1 2 3 4 5 6 7 8 9 10 11 12 13 14 15 16 17 18 19 20 21 22 23 24 25 26 27 28 29 30 31 32 33 34 35 36 37 38 39 40 41 42 43 44 45 46 47 48 49 50

000
ASUS43 KLSX 280410
RWRMO

WEATHER SUMMARY FOR MISSOURI
NATIONAL WEATHER SERVICE SPRINGFIELD MO
1100 PM CDT SUN MAY 27 2018

NOTE: "FAIR" INDICATES FEW OR NO CLOUDS BELOW 12,000 FEET WITH NO
       SIGNIFICANT WEATHER AND/OR OBSTRUCTIONS TO VISIBILITY.
       CURRENT SKY AND/OR WEATHER CONDITIONS ARE NOT AVAILABLE FOR
       CHILLICOTHE AND FARMINGTON.

MOZ001>031-035>038-043-044-053-054-280500-
...NORTHERN AND WESTERN MISSOURI...

CITY           SKY/WX    TMP DP  RH WIND       PRES   REMARKS
KANSAS CTY INT MOCLDY    78  68  71 SW7       29.90S
KANSAS C DTWN  CLEAR     82  69  64 SW5       29.89R
LEE`S SUMMIT   CLEAR     78  71  79 SW3       29.91R
ST JOSEPH      CLEAR     80  69  69 SW6       29.88S
CHILLICOTHE      N/A     78  71  79 CALM      29.90R
KIRKSVILLE     CLOUDY    77  66  68 S5        29.91R

$$
MOZ066>068-077>081-088>096-101>105-280500-
...SOUTHWEST MISSOURI...

CITY           SKY/WX    TMP DP  RH WIND       PRES   REMARKS
SPRINGFIELD    CLEAR     79  66  64 S6        29.93R
JOPLIN         CLEAR     75  69  81 CALM      29.92R
BRANSON        CLEAR     73  68  83 CALM      29.95S

$$
MOZ032>034-039>042-045>050-055>058-069>072-280500-
...CENTRAL MISSOURI...

CITY           SKY/WX    TMP DP  RH WIND       PRES   REMARKS
COLUMBIA       CLEAR     80  70  71 CALM      29.91R
JEFFERSON CITY CLEAR     77  70  79 CALM      29.89R
ROLLA          PTCLDY    75  71  87 CALM      29.93R
SEDALIA        CLEAR     78  70  76 SW5       29.92R
WHITEMAN AFB   CLEAR     78  70  75 S5        29.87R
WARRENSBURG    PTCLDY    77  68  73 S3        29.90R
OSAGE BEACH    CLEAR     74  72  93 CALM      29.92R

$$
MOZ051-052-059>065-280500-
...EAST CENTRAL MISSOURI...

CITY           SKY/WX    TMP DP  RH WIND       PRES   REMARKS
ST LOUIS INTL  MOCLDY    81  69  67 CALM      29.91R
SPIRIT OF STL  MOCLDY    77  71  82 CALM      29.89S
ST CHARLES     PTCLDY    78  69  73 CALM      29.89S

$$
MOZ072>076-082>087-097>100-106>115-280500-
...SOUTH CENTRAL AND SOUTHEAST MISSOURI...

CITY           SKY/WX    TMP DP  RH WIND       PRES   REMARKS
CAPE GIRARDEAU FAIR      75  69  81 E6        29.90R
FARMINGTON     PTCLDY    72  69  90 NW3       29.94R
POPLAR BLUFF   FAIR      77  75  93 CALM      29.88S
WEST PLAINS    CLOUDY    73  69  87 CALM      29.94S

$$




USA.gov is the U.S. government's official web portal to all federal, state and local government web resources and services.